Location: Laterina
(43.5167°N, 11.7167°E)
Time: 08:14:58
(UTC+00:00)

Cosmos 2026 Rocket - Pass Details

Date: 20 January 2021
Orbit: 940 x 1000 km, 82.9° (Epoch: 08 March)

Event Time Altitude Azimuth Distance (km) Brightness Sun altitude
Rises 06:00:42 0° 348° (NNW) 3,706 6.7 -7.4°
Reaches altitude 10° 06:03:15 10° 345° (NNW) 2,760 6.0 -6.9°
Maximum altitude 06:09:28 60° 268° (W) 1,134 4.1 -5.9°
Drops below altitude 10° 06:15:41 10° 190° (S) 2,762 6.6 -4.8°
Sets 06:18:14 0° 186° (S) 3,708 7.3 -4.4°
